Tracking 29892 objects as of 21-Nov-2024
HD Live streaming from Space Station
objects crossing your sky now

COSMOS 1932 DEB

Track COSMOS 1932 DEB now!
10-day predictions


NORAD ID: 28275
Int'l Code: 1988-019F
Perigee: 940.3 km
Apogee: 984.2 km
Inclination: 65.0 °
Period: 104.2 minutes
Semi major axis: 7333 km
RCS: 0.0067 m2 (small)
Launch date: March 14, 1988
Source: Commonwealth of Independent States (former USSR) (CIS)
Launch site: TYURATAM MISSILE AND SPACE COMPLEX (TTMTR)

Note: This is SATELLITE DEBRIS
Your satellite tracking list
Your tracking list is empty




NASA's NSSDC Master Catalog

Two Line Element Set (TLE):
1 28275U 88019F   24314.76935021  .00000880  00000-0  88935-3 0  9999
2 28275  65.0422 138.0612 0029948  50.4620 323.0253 13.82473252562812
Source of the keplerian elements: AFSPC